Wind_Speed
51 48 50 48 46 44 42 39 39 39 42 43 45 43 40 38 37 36 37 37 36 40 40 39 38 38 39 39 40 39 41 45 45 46 44 42 43 43 46 43 41 38 38 38 35 34 34
51 51 52 53 52 49 48 47 45 43 43 45 46 49 47 45 42 41 40 39 38 37 43 41 38 39 39 38 36 38 39 43 43 44 44 41 42 45 46 45 39 40 40 35 34 31 34
53 51 53 53 54 51 49 47 46 45 46 46 49 51 51 52 49 45 44 42 42 41 40 42 41 40 39 38 35 35 37 40 42 44 44 41 42 43 44 45 42 41 38 37 33 32 32
56 55 57 60 58 55 52 54 53 54 57 57 57 57 58 58 58 53 48 46 44 44 41 41 41 41 40 37 33 33 34 38 40 42 42 41 42 43 42 42 39 41 39 37 36 33 33
59 61 63 65 65 60 59 61 62 70 72 75 76 69 64 63 63 60 56 49 47 45 44 42 42 40 39 36 32 31 32 35 37 40 41 40 41 42 40 39 40 41 39 38 38 35 36
61 65 67 71 72 67 66 72 75 84 80 77 73 67 57 57 61 62 61 51 43 44 46 44 44 40 37 36 32 31 31 32 36 38 40 39 39 41 39 38 38 40 42 40 39 38 37
63 68 71 76 77 75 76 81 81 75 63 52 45 42 38 36 37 50 56 48 47 53 46 42 38 38 35 35 33 30 28 30 34 38 39 39 38 35 35 37 38 38 38 37 37 38 39
64 70 75 80 81 79 82 85 70 57 43 33 26 20 20 25 32 44 54 51 53 47 45 38 39 39 37 35 32 30 28 29 32 33 35 36 34 31 32 31 32 32 32 34 34 36 38
67 72 78 84 84 84 90 78 59 51 32 10 5 1 5 10 32 43 50 56 47 45 49 46 43 43 39 37 33 31 29 28 29 30 30 32 30 27 25 25 26 26 28 29 31 32 34
70 75 81 86 89 89 93 69 57 43 20 6 3 5 7 9 23 41 61 53 53 48 47 43 45 42 39 38 35 33 31 27 26 24 27 28 23 23 22 22 24 25 27 30 33 36 38
72 77 82 87 91 93 89 62 55 35 13 12 7 4 10 12 17 36 70 62 44 41 37 40 45 43 40 40 36 33 29 27 26 25 24 24 21 20 20 23 25 28 30 34 37 41 44
72 78 82 88 92 96 81 61 48 31 11 19 15 12 11 10 16 40 76 51 41 43 43 43 44 42 41 40 37 34 31 28 25 25 24 23 21 21 23 25 27 29 33 37 42 46 49
72 78 84 90 93 97 73 58 44 25 6 11 18 15 13 11 25 50 72 46 47 49 42 34 40 40 40 36 37 35 32 28 27 25 23 23 22 24 25 27 29 33 35 39 44 47 49
72 78 85 90 94 94 66 52 31 9 9 6 9 14 7 15 27 63 54 48 49 47 42 32 33 37 40 34 36 34 32 29 28 26 24 24 25 25 25 29 32 32 34 34 42 44 46
71 77 84 90 94 86 59 36 15 15 12 14 15 3 6 22 40 65 50 46 36 43 37 23 30 34 38 36 30 31 31 29 26 25 25 26 26 26 28 29 29 29 33 36 39 44 51
70 75 83 88 93 79 49 27 20 17 20 15 6 6 10 27 54 61 45 29 31 38 37 25 22 27 29 33 30 27 26 26 26 25 26 25 27 27 26 27 28 33 34 36 41 49 51
68 73 80 86 90 73 43 26 19 18 18 10 7 4 14 33 49 46 41 29 33 37 28 23 22 28 21 26 28 28 28 27 26 27 28 27 27 23 24 27 30 32 35 39 42 46 49
66 71 77 83 86 67 41 30 23 16 14 13 12 20 23 45 56 40 28 27 35 31 26 21 25 28 25 25 28 31 30 29 29 27 24 24 22 21 24 27 30 34 34 37 43 43 50
64 69 74 78 81 62 33 27 26 15 17 15 23 36 35 42 41 37 24 28 28 25 22 25 27 31 27 24 26 26 25 24 22 24 22 19 20 21 24 24 31 30 32 35 43 46 47
60 65 70 73 77 57 26 24 20 17 20 12 31 34 37 36 30 33 28 29 24 19 20 25 32 34 28 25 23 23 19 19 20 17 17 18 18 19 20 24 27 27 28 33 39 45 42
56 61 65 67 71 52 19 20 21 10 11 15 33 27 38 37 34 36 37 28 16 17 15 20 29 32 33 25 23 20 16 16 16 16 17 16 14 17 18 20 22 25 29 33 35 33 38
52 56 60 59 64 47 12 16 23 19 15 22 32 20 30 36 30 29 25 23 18 15 16 19 28 31 29 27 21 18 15 17 17 15 15 12 14 14 14 18 18 17 22 23 23 26 31
49 52 56 53 54 39 16 15 16 18 15 21 34 19 24 23 22 22 17 15 14 13 12 17 25 28 28 24 20 17 16 15 13 13 11 12 10 9 12 12 10 10 17 19 19 19 22
45 48 51 52 47 45 18 6 11 13 6 18 29 15 15 16 20 14 11 10 10 11 10 16 21 22 21 20 18 18 15 12 13 12 12 9 8 6 5 3 7 10 16 18 19 21 18
42 45 48 51 45 47 25 8 4 12 4 18 21 15 11 16 12 5 5 10 8 13 14 17 18 18 18 18 18 16 15 14 13 14 12 8 7 3 7 2 7 7 10 15 16 21 24
41 42 45 47 46 39 39 11 12 13 6 5 22 18 11 10 8 5 8 12 15 16 16 16 17 18 19 18 17 16 16 15 16 14 10 10 6 5 7 2 3 8 8 12 14 17 21
39 41 42 44 47 42 38 25 22 21 18 13 8 20 21 17 11 12 14 16 18 20 18 19 19 19 17 17 18 18 16 17 18 16 13 10 7 5 2 1 1 4 5 8 12 14 19
38 40 42 43 45 44 41 39 15 27 24 18 15 17 21 19 13 13 13 15 18 19 17 17 17 15 12 16 19 19 18 21 20 16 15 11 9 7 5 2 1 1 3 6 8 10 9
37 37 41 44 46 46 44 41 28 33 31 23 22 19 20 18 14 17 17 14 18 20 15 14 14 11 8 14 20 21 21 23 21 18 17 15 11 9 5 3 3 6 7 8 7 5 8
Wind_Direction
350 345 339 334 326 316 307 300 293 286 281 276 275 270 265 260 259 256 252 247 241 242 241 238 237 235 234 234 232 232 230 231 231 232 230 232 234 233 236 235 236 242 241 244 246 244 241
348 345 341 336 329 318 312 306 299 293 283 276 270 268 264 260 253 252 250 249 245 241 238 236 238 235 233 234 233 233 231 231 228 230 228 229 232 232 234 239 238 240 240 243 243 243 240
347 346 343 338 332 325 317 310 304 296 288 279 272 264 257 257 253 248 246 247 245 243 237 232 232 234 232 231 231 234 232 231 231 230 230 227 230 231 233 237 236 238 236 238 237 236 235
342 343 342 340 336 330 324 316 312 307 301 291 280 267 258 254 247 245 242 239 242 239 235 231 229 229 229 229 227 231 231 229 229 230 230 225 228 229 231 235 237 237 234 235 233 232 232
341 341 341 340 336 330 325 320 317 313 305 297 290 284 269 256 244 239 238 234 235 239 232 228 225 227 226 226 225 229 232 231 229 229 230 227 227 229 228 230 234 235 232 232 234 232 231
340 341 341 339 336 331 324 322 316 313 301 292 286 282 275 261 247 240 230 226 226 223 229 223 221 224 223 223 222 224 228 230 229 229 229 228 224 227 227 229 233 234 233 232 233 233 236
339 340 340 339 337 332 328 323 323 311 308 301 293 285 274 256 235 227 220 212 198 226 228 221 222 223 222 222 220 222 224 228 228 228 228 229 227 230 230 229 231 235 237 239 241 242 240
339 340 340 339 337 333 330 330 323 320 314 306 296 291 278 253 221 211 202 194 196 210 223 222 220 216 218 218 216 218 220 224 225 225 226 228 227 227 228 230 233 237 239 241 241 243 244
338 340 341 339 338 334 331 333 327 324 315 274 237 322 318 312 210 209 189 181 193 204 214 219 215 212 213 212 212 211 213 217 218 220 221 224 222 224 224 225 229 234 238 243 249 250 250
337 339 341 339 339 338 336 334 329 325 310 197 121 5 284 272 220 206 177 179 188 195 211 213 210 211 211 209 210 209 209 210 214 214 217 215 212 220 223 229 236 239 248 254 259 263 265
338 340 342 340 341 337 340 337 331 325 285 194 242 4 319 268 214 197 181 186 180 186 205 212 208 207 208 208 207 207 206 207 210 212 215 216 218 225 232 242 249 256 262 268 271 273 274
339 341 342 343 343 339 342 339 332 323 254 211 240 319 321 246 206 182 179 168 186 185 204 211 210 207 206 207 206 207 206 207 209 215 219 226 230 236 245 254 260 266 271 274 276 277 278
340 342 344 345 344 343 345 338 335 322 264 234 249 296 306 211 183 178 180 168 180 185 197 205 206 205 206 205 206 208 208 209 214 220 226 235 238 248 254 260 266 271 276 281 282 281 280
342 344 346 347 346 346 348 343 345 12 66 0 326 308 273 187 176 179 159 166 175 185 193 200 200 204 205 202 203 207 210 212 217 222 227 235 243 251 258 265 271 278 283 284 279 283 286
344 346 348 350 348 350 350 358 32 21 14 345 324 295 154 169 176 171 153 163 172 183 188 186 191 199 202 201 202 207 211 215 219 224 230 237 246 254 263 271 276 275 272 274 282 283 284
346 347 350 352 350 353 355 7 353 13 3 15 53 118 179 164 177 165 158 165 173 174 189 189 185 194 200 202 202 205 208 213 217 224 234 241 250 258 266 269 270 270 276 283 288 287 292
347 348 352 354 352 355 3 7 13 6 359 19 349 263 153 164 172 162 159 161 168 173 177 176 181 181 183 194 202 205 210 216 222 230 238 248 254 256 263 261 266 273 283 288 288 293 297
348 350 353 355 355 356 3 10 354 16 31 36 79 123 140 156 147 146 134 152 164 168 182 179 177 178 190 194 196 206 215 223 229 235 237 243 252 253 251 258 273 286 290 286 288 296 293
348 351 354 356 358 358 5 25 31 49 39 64 135 131 130 157 154 150 138 157 154 163 173 179 179 181 183 186 193 199 207 215 221 229 239 243 250 250 251 271 278 285 289 295 296 295 296
350 351 354 358 1 4 27 26 34 55 57 73 137 128 142 152 152 149 159 156 165 171 170 180 184 188 191 192 198 200 206 214 224 236 240 250 247 249 270 280 285 289 296 294 293 298 302
351 352 354 359 3 8 34 27 35 50 41 146 152 127 140 156 152 149 145 145 160 172 179 195 194 194 202 209 216 220 217 228 238 242 249 248 246 262 274 273 287 304 303 300 297 300 296
351 352 355 360 5 9 37 43 29 33 61 135 162 118 146 147 141 140 148 166 190 206 210 200 196 194 200 210 217 218 224 235 241 249 247 246 254 266 266 278 298 297 305 309 305 304 309
349 351 354 1 7 1 5 27 23 24 40 128 160 119 153 139 135 141 151 164 186 208 217 208 201 201 205 210 216 220 229 236 247 245 237 243 243 255 273 281 295 322 348 352 347 335 330
347 348 354 359 6 7 349 344 359 12 82 151 165 153 137 143 152 160 167 189 214 212 209 203 201 205 204 203 206 218 229 232 240 225 231 217 223 245 201 205 303 338 11 9 10 5 344
344 345 352 354 2 6 357 289 284 325 48 186 177 167 158 158 157 165 233 238 211 201 193 194 194 193 192 201 208 219 223 237 223 217 204 203 217 214 155 81 24 13 14 3 16 23 18
341 341 349 351 355 359 6 293 232 254 257 184 202 213 197 166 181 215 218 207 186 178 176 174 181 184 197 204 209 216 229 226 212 204 201 207 214 184 153 148 74 37 9 1 14 27 33
338 337 343 349 348 353 357 351 245 243 253 241 217 210 198 191 207 213 195 193 178 174 177 176 180 190 200 203 209 217 233 224 213 204 205 211 202 174 169 208 35 44 21 14 13 23 38
332 334 337 345 344 347 349 357 259 233 238 232 205 190 198 209 222 207 194 188 195 184 173 179 178 184 198 205 213 221 234 221 214 206 213 206 196 196 208 249 204 194 4 354 357 354 11
328 333 335 340 341 342 342 346 347 220 218 203 199 193 191 198 218 198 197 201 195 190 184 180 177 180 191 210 216 225 227 223 216 216 217 214 204 204 206 226 307 337 349 347 348 348 323
Height
5708 5700 5692 5685 5677 5671 5664 5660 5656 5653 5649 5646 5642 5641 5640 5639 5639 5640 5642 5644 5647 5649 5652 5656 5660 5664 5668 5673 5677 5682 5687 5692 5697 5703 5708 5712 5717 5722 5727 5731 5733 5737 5741 5742 5746 5749 5751
5703 5694 5686 5678 5670 5662 5655 5649 5644 5640 5637 5633 5631 5628 5627 5627 5627 5629 5630 5633 5636 5640 5644 5647 5651 5655 5660 5665 5669 5673 5678 5683 5689 5694 5699 5704 5709 5713 5719 5723 5727 5729 5733 5737 5739 5741 5744
5699 5691 5683 5673 5664 5655 5645 5639 5632 5626 5622 5618 5615 5612 5611 5611 5612 5615 5618 5621 5626 5630 5634 5637 5642 5646 5652 5656 5661 5666 5671 5676 5681 5686 5691 5695 5700 5706 5710 5715 5719 5722 5726 5729 5732 5734 5737
5693 5683 5674 5664 5654 5645 5636 5624 5616 5610 5602 5596 5593 5591 5590 5591 5594 5598 5603 5609 5614 5619 5623 5628 5633 5638 5644 5649 5654 5659 5663 5668 5673 5678 5683 5687 5692 5698 5703 5708 5712 5715 5718 5721 5724 5727 5730
5684 5674 5663 5652 5642 5630 5621 5611 5601 5589 5574 5561 5554 5555 5558 5563 5569 5578 5586 5594 5602 5606 5613 5618 5624 5630 5636 5642 5647 5652 5657 5662 5666 5672 5676 5681 5686 5692 5696 5700 5704 5708 5711 5713 5717 5720 5722
5676 5665 5653 5641 5628 5616 5605 5593 5578 5563 5544 5530 5522 5518 5520 5529 5540 5552 5566 5578 5589 5596 5601 5607 5615 5623 5630 5636 5641 5646 5651 5655 5660 5665 5671 5676 5680 5685 5689 5692 5698 5701 5704 5706 5709 5712 5714
5668 5655 5642 5630 5615 5600 5586 5569 5551 5529 5514 5504 5498 5496 5497 5501 5513 5527 5545 5563 5579 5581 5587 5601 5612 5616 5624 5630 5635 5641 5644 5649 5655 5660 5665 5670 5675 5681 5683 5686 5690 5694 5698 5701 5703 5704 5707
5660 5646 5632 5616 5601 5583 5567 5548 5525 5509 5498 5491 5486 5484 5484 5487 5496 5507 5523 5546 5562 5574 5583 5594 5601 5609 5616 5622 5629 5635 5640 5646 5651 5655 5660 5667 5672 5674 5678 5682 5685 5689 5692 5694 5696 5696 5699
5652 5637 5623 5606 5587 5569 5550 5528 5509 5495 5488 5484 5482 5481 5482 5483 5487 5496 5514 5538 5553 5566 5576 5583 5592 5601 5609 5616 5623 5630 5636 5641 5646 5650 5656 5662 5667 5670 5674 5677 5680 5683 5685 5687 5689 5690 5692
5645 5630 5614 5595 5576 5554 5534 5512 5497 5484 5479 5479 5479 5478 5478 5478 5484 5489 5511 5526 5543 5555 5566 5578 5586 5595 5604 5611 5618 5625 5632 5637 5642 5648 5652 5658 5663 5666 5670 5673 5675 5678 5679 5680 5681 5682 5684
5637 5622 5605 5586 5564 5541 5519 5500 5486 5476 5472 5473 5475 5474 5473 5475 5476 5486 5502 5519 5536 5549 5561 5572 5578 5588 5597 5605 5616 5622 5628 5633 5640 5645 5652 5656 5659 5663 5666 5668 5671 5673 5674 5674 5673 5672 5673
5630 5615 5597 5576 5554 5531 5509 5492 5478 5470 5466 5468 5470 5470 5471 5471 5474 5483 5496 5516 5530 5546 5553 5563 5574 5584 5594 5602 5611 5618 5624 5631 5637 5642 5647 5651 5655 5658 5661 5663 5665 5666 5666 5665 5663 5662 5663
5625 5609 5591 5569 5546 5523 5501 5484 5473 5465 5464 5466 5467 5468 5468 5468 5473 5482 5494 5513 5526 5539 5551 5563 5572 5582 5591 5600 5608 5615 5622 5629 5634 5639 5643 5646 5650 5652 5655 5657 5658 5658 5658 5655 5653 5651 5652
5620 5604 5585 5564 5540 5516 5496 5480 5470 5467 5466 5467 5465 5464 5464 5466 5471 5481 5499 5513 5527 5536 5551 5561 5570 5579 5587 5596 5603 5611 5618 5624 5630 5634 5639 5642 5646 5648 5650 5651 5651 5650 5649 5647 5641 5638 5638
5616 5600 5582 5560 5536 5513 5494 5481 5477 5473 5470 5467 5464 5463 5464 5467 5472 5484 5505 5519 5528 5540 5553 5562 5568 5577 5585 5593 5602 5609 5616 5622 5627 5631 5635 5637 5641 5642 5643 5643 5644 5644 5641 5638 5635 5632 5625
5612 5597 5579 5559 5536 5512 5496 5487 5483 5478 5473 5468 5465 5464 5467 5471 5476 5491 5507 5520 5531 5543 5552 5561 5568 5577 5585 5593 5601 5607 5613 5618 5622 5627 5629 5634 5635 5637 5638 5637 5636 5634 5634 5632 5627 5618 5613
5610 5595 5578 5559 5537 5515 5500 5494 5489 5484 5477 5473 5470 5467 5469 5473 5486 5503 5513 5524 5535 5544 5554 5561 5568 5576 5584 5592 5598 5604 5609 5614 5619 5622 5625 5628 5630 5635 5633 5631 5628 5628 5626 5622 5616 5610 5605
5609 5594 5579 5561 5541 5520 5508 5500 5494 5488 5482 5478 5475 5475 5478 5485 5502 5511 5521 5529 5538 5549 5557 5563 5569 5576 5583 5589 5594 5600 5606 5611 5615 5618 5622 5624 5627 5628 5627 5625 5623 5620 5619 5613 5606 5605 5595
5608 5594 5580 5564 5547 5528 5515 5508 5501 5497 5492 5486 5486 5489 5493 5504 5512 5519 5528 5536 5545 5553 5558 5564 5570 5576 5582 5587 5593 5598 5603 5608 5612 5614 5618 5621 5622 5622 5620 5621 5616 5616 5610 5604 5597 5593 5588
5609 5595 5581 5568 5552 5536 5525 5518 5512 5509 5505 5500 5502 5504 5509 5515 5521 5527 5535 5543 5551 5556 5560 5565 5570 5575 5581 5586 5591 5596 5602 5606 5609 5612 5613 5615 5616 5615 5616 5613 5608 5607 5606 5601 5592 5584 5580
5608 5596 5583 5569 5556 5543 5534 5528 5522 5519 5516 5514 5516 5518 5523 5528 5532 5537 5543 5549 5555 5558 5562 5566 5571 5575 5580 5586 5590 5595 5600 5603 5606 5608 5609 5610 5610 5611 5609 5607 5605 5603 5598 5593 5586 5581 5572
5607 5598 5585 5571 5559 5549 5543 5537 5532 5528 5525 5524 5528 5528 5531 5537 5540 5545 5549 5553 5557 5561 5564 5567 5570 5574 5579 5584 5589 5593 5598 5600 5602 5603 5604 5605 5606 5606 5604 5603 5604 5601 5594 5588 5582 5579 5570
5607 5600 5589 5576 5563 5554 5552 5547 5541 5538 5535 5536 5537 5539 5542 5544 5547 5550 5553 5556 5560 5562 5564 5567 5571 5574 5578 5584 5589 5593 5596 5598 5599 5599 5600 5602 5602 5603 5603 5601 5600 5598 5591 5585 5580 5574 5568
5606 5600 5590 5580 5569 5560 5555 5553 5549 5548 5546 5547 5547 5547 5548 5550 5551 5554 5556 5558 5561 5563 5565 5567 5570 5574 5580 5584 5588 5592 5594 5595 5596 5598 5599 5600 5601 5601 5600 5600 5599 5595 5589 5585 5581 5575 5569
5604 5599 5591 5583 5573 5564 5557 5555 5554 5553 5554 5552 5552 5552 5553 5554 5555 5557 5559 5560 5561 5563 5565 5568 5571 5576 5580 5584 5587 5590 5592 5593 5595 5596 5597 5599 5599 5599 5599 5599 5597 5593 5590 5587 5583 5578 5571
5602 5596 5589 5582 5575 5566 5558 5555 5553 5555 5555 5556 5555 5554 5555 5556 5557 5559 5559 5560 5561 5563 5566 5568 5573 5576 5579 5582 5585 5587 5589 5590 5593 5595 5596 5598 5598 5598 5598 5598 5596 5594 5591 5588 5585 5583 5576
5598 5592 5584 5578 5572 5565 5559 5552 5549 5551 5552 5554 5556 5556 5558 5558 5559 5559 5559 5560 5562 5563 5566 5568 5572 5575 5577 5579 5582 5584 5586 5588 5591 5593 5596 5597 5597 5596 5597 5596 5595 5594 5593 5591 5589 5589 5581
5594 5588 5580 5572 5567 5561 5554 5549 5545 5546 5548 5550 5551 5554 5555 5556 5557 5558 5559 5560 5561 5563 5566 5569 5572 5574 5576 5578 5580 5582 5584 5587 5589 5591 5594 5595 5596 5596 5596 5595 5596 5594 5593 5592 5591 5588 5586
5589 5582 5575 5568 5562 5555 5548 5542 5538 5538 5542 5545 5547 5549 5552 5554 5556 5557 5558 5560 5561 5564 5566 5568 5570 5572 5573 5575 5578 5580 5582 5584 5587 5588 5591 5593 5595 5595 5595 5595 5594 5592 5591 5590 5589 5589 5587